Regional Weather Roundup
Issued by NWS

Home | Current Version | Previous Version | Graphics & Text | Print | Product List | Glossary On
Versions: 1 2 3 4 5 6 7 8 9 10 11 12 13 14 15 16 17 18 19 20 21 22 23 24 25 26 27 28 29 30 31 32 33 34 35 36 37 38 39 40 41 42 43 44 45 46 47 48 49 50
000
ASUS43 KTOP 060308
RWRKS

WEATHER ROUNDUP FOR KANSAS
NATIONAL WEATHER SERVICE GOODLAND KS
1000 PM CDT THU MAY 05 2016

NOTE:  "FAIR" INDICATES FEW OR NO CLOUDS BELOW 12,000 FEET WITH NO
SIGNIFICANT WEATHER AND/OR OBSTRUCTIONS TO VISIBILITY.

KSZ001>006-013>018-027>032-041>047-060400-
NORTHWEST KANSAS

CITY           SKY/WX    TMP DP  RH WIND       PRES   REMARKS
GOODLAND       CLOUDY    60  49  66 SE12      30.02R
HAYS           CLOUDY    61  45  55 SE8       30.04R
HILL CITY      CLEAR     60  49  66 E6        30.03R
RUSSELL        CLEAR     63  47  55 SE12      30.02R
$$

KSZ061>065-074>080-084>089-060400-
SOUTHWEST KANSAS

CITY           SKY/WX    TMP DP  RH WIND       PRES   REMARKS
DODGE CITY     CLEAR     62  47  57 SE13      30.04R
ELKHART          N/A     65  47  52 SE16        N/A
GARDEN CITY    CLEAR     62  49  62 SE12      30.03R
GREAT BEND     CLEAR     61  45  55 SE8       30.04R
LIBERAL        CLEAR     68  46  45 SE13      30.04R
PRATT          CLOUDY    64  43  46 SE8       30.05R
$$

KSZ066>073-081>083-090>101-060400-
SOUTHEAST KANSAS

CITY           SKY/WX    TMP DP  RH WIND       PRES   REMARKS
CHANUTE        CLEAR     57  48  72 CALM      30.04R
COFFEYVILLE    CLEAR     58  49  72 CALM      30.04R
HUTCHINSON     CLEAR     54  46  74 E5        30.04R
MEDICINE LODGE   N/A     67  47  48 SE5       30.04R
NEWTON         CLEAR     63  39  42 SE5       30.07R
PARSONS        CLEAR     57  51  80 CALM      30.05R
WICHITA INTL   CLEAR     65  46  50 S3        30.04R
WICHITA JABRA  CLEAR     66  44  45 SE3       30.04R
WICHITA MCCONL CLEAR     66  44  44 S5        30.05R
WINFIELD       CLEAR     63  45  51 S6        30.47F
$$

KSZ007>012-019>026-033>040-048>060-102>105-060400-
NORTHEAST KANSAS

CITY           SKY/WX    TMP DP  RH WIND       PRES   REMARKS
CONCORDIA      CLEAR     62  45  53 S10       30.03R
EMPORIA        CLEAR     60  46  59 S5        30.04R
LAWRENCE       CLEAR     54  47  77 CALM      30.04R
MANHATTAN      CLEAR     63  45  51 CALM      30.03R
MARYSVILLE     CLEAR     63  45  51 SE5       30.03R
OLATHE IND     CLEAR     57  44  62 CALM      30.05R
OLATHE EXE     CLEAR     58  43  57 CALM      30.05R
SALINA         CLEAR     64  47  53 SE6       30.04R
TOPEKA BILLARD CLEAR     59  49  69 CALM      30.04R
TOPEKA FORBES  CLEAR     60  48  64 SE3       30.04R
$$




USA.gov is the U.S. government's official web portal to all federal, state and local government web resources and services.